Regional Weather Roundup
Issued by NWS

Home | Current Version | Previous Version | Graphics & Text | Print | Product List | Glossary On
Versions: 1 2 3 4 5 6 7 8 9 10 11 12 13 14 15 16 17 18 19 20 21 22 23 24 25 26 27 28 29 30 31 32 33 34 35 36 37 38 39 40 41 42 43 44 45 46 47 48 49 50
000
ASUS43 KIND 270509
RWRIN

WEATHER ROUNDUP FOR INDIANA
NATIONAL WEATHER SERVICE INDIANAPOLIS IN
1200 AM EST THU NOV 27 2014

NOTE: "FAIR" INDICATES FEW OR NO CLOUDS BELOW 12,000 FEET WITH NO
SIGNIFICANT WEATHER AND/OR OBSTRUCTIONS TO VISIBILITY.

* - STATION DOES NOT REPORT WEATHER SUCH AS PRECIPITATION OR FOG.

+ - STATION NOT QUALITY CONTROLLED BY THE NATIONAL WEATHER SERVICE.
    USE DATA WITH CAUTION...ESPECIALLY DEWPOINT AND RELATIVE
    HUMIDITY OBSERVATIONS.

INZ001>003-010>013-019-020-270600-
NORTHWEST INDIANA

CITY           SKY/WX    TMP DP  RH WIND       PRES   REMARKS
GARY /AIRPORT/ CLOUDY    31  22  71 CALM      30.17R
KNOX *+        MOCLDY    23  19  87 NW3       30.15R
LA PORTE +     CLOUDY    28  24  83 N3        30.16R
MICHIGAN CITY+ CLOUDY    27  23  86 CALM      30.17R
MONTICELLO +   CLOUDY    27  21  77 N7        30.14S WCI  20
RENSSELAER +   MOCLDY    25  23  93 NW3       30.17R
VALPARAISO     CLOUDY    26  20  77 CALM      30.16R

$$

LMZ046-743>745-270600-
SOUTHERN LAKE MICHIGAN

STATION/POSITION TIME  TEMP WIND        PRES
                       AIR  DIR/SP/G
                 (UTC) (F)  (DEG/KT/KT) (MB)
MICHIGAN CITY    0500   28  140/  4/  5   N/A

$$

INZ004-005-014>016-021>024-270600-
NORTH CENTRAL INDIANA

CITY           SKY/WX    TMP DP  RH WIND       PRES   REMARKS
GOSHEN         CLOUDY    28  21  75 N3        30.12S
LOGANSPORT +   CLOUDY    28  21  74 N6        30.14S WCI  22
PERU/GRISSOM   CLOUDY    28  23  84 N6        30.12R WCI  21
ROCHESTER +    MOCLDY    30  23  74 N5        30.14R WCI  25
SOUTH BEND     CLOUDY    27  21  78 NW5       30.15R WCI  22
WARSAW +       CLOUDY    28  21  74 N6        30.12S WCI  22

$$

INZ006>009-017-018-025>027-270600-
NORTHEAST INDIANA

CITY           SKY/WX    TMP DP  RH WIND       PRES   REMARKS
ANGOLA *+      CLOUDY    27  23  86 N3        30.10R
AUBURN +       CLOUDY    30  23  74 NW8       30.11S WCI  23
FORT WAYNE     CLOUDY    28  22  78 N8        30.12R WCI  20
HUNTINGTON +   CLOUDY    28  22  80 N5        30.12R WCI  22

$$

INZ028-029-035-036-043>045-051>053-270600-
WEST CENTRAL INDIANA

CITY           SKY/WX    TMP DP  RH WIND       PRES   REMARKS
GREENCASTLE +  CLOUDY    27  23  86 N7        30.11R WCI  19
LAFAYETTE      CLOUDY    27  20  75 N8        30.15R WCI  19
TERRE HAUTE    MOCLDY    29  24  82 N9        30.13R WCI  20

$$

INZ030>032-037>040-046>048-054>057-064-065-270600-
CENTRAL INDIANA

CITY           SKY/WX    TMP DP  RH WIND       PRES   REMARKS
CP ATTERBURY + CLOUDY    30  27  86 N3        30.10R
FRANKFORT +    CLOUDY    28  22  79 N9        30.14R WCI  19
INDIANAPOLIS   CLOUDY    28  21  75 N10       30.09R WCI  19
-EAGLE CREEK   CLOUDY    27  22  81 N10       30.10R WCI  17
KOKOMO *+      CLOUDY    28  19  69 N8        30.12R WCI  20
MARION +         N/A     28  21  76 CALM      30.12R
MT COMFORT *+  MOCLDY    27  19  74 N7        30.10R WCI  19
SHELBYVILLE    CLOUDY    30  23  75 NE9       30.08S WCI  22
ZIONSVILLE +   CLOUDY    28  22  79 N6        30.11R WCI  21

$$

INZ033-034-041-042-049-050-058-059-270600-
EAST CENTRAL INDIANA

CITY           SKY/WX    TMP DP  RH WIND       PRES   REMARKS
MUNCIE         CLOUDY    28  22  78 N7        30.09S WCI  21

$$

INZ060-061-067>069-081>083-085>088-270600-
SOUTHWEST INDIANA

CITY           SKY/WX    TMP DP  RH WIND       PRES   REMARKS
EVANSVILLE     LGT SNOW  34  31  88 N6        30.09R FOG     WCI  29
HUNTINGBURG *+ MOCLDY    34  28  80 N9        30.07R WCI  26
WASHINGTON +   FLURRIES  33  31  92 NW7       30.10R WCI  27

$$

INZ062-063-066-070>080-084-089>092-270600-
SOUTH CENTRAL AND SOUTHEAST INDIANA

CITY           SKY/WX    TMP DP  RH WIND       PRES   REMARKS
BLOOMINGTON    LGT SNOW  31  26  82 NE8       30.08R WCI  23

$$




USA.gov is the U.S. government's official web portal to all federal, state and local government web resources and services.